Flag for Germany Weather past 2 weeks in Apolda, Thuringia, Germany

Now
57 °F

Overcast.


Feels Like: 56 °F
Forecast: 54 / 64 °F
Wind: 5 mph from West

Location: Erfurt-Bindersleben

Current Time: Sep 1, 2014 at 11:03:46 PM

Latest Report: Sep 1, 2014 at 10:00 PM


Visibility: 19 mi

Pressure: 30.12 "Hg

Humidity: 91%

Dew point: 54 °F

Location of ApoldaLocation

Historic Weather in Apolda — Graph

°F

Apolda temperature yesterday

Maximum temperature yesterday: 63 °F (at 3:00 PM)
Minimum temperature yesterday: 52 °F (at 10:00 PM)
Average temperature yesterday: 59 °F

Past Weeks' High & Low Weather Summary

 TemperatureHumidityPressure
High71 °F (Aug 29, 5:00 PM)98% (Aug 27, 2:00 AM)30.12 "Hg (Aug 27, 2:00 AM)
Low42 °F (Aug 21, 6:00 AM)36% (Aug 22, 3:00 PM)29.70 "Hg (Aug 26, 10:00 AM)
Average57 °F75%29.95 "Hg
* Reported Aug 17 10:00 PM — Sep 1 10:00 PM, Apolda, Weather by CustomWeather, © 2014

Note: Actual official high and low records may vary slightly from our data, if they occured in-between our weather recording intervals... More about our weather records

Advertising

Apolda weather history for previous 24 hours

 ConditionsComfort  
Time TempWeatherWind HumidityBarometerVisibility
10:00 PM
Sep 1
57 °FOvercast.5 mph91%30.12 "Hg19 mi
9:00 PM58 °FOvercast.5 mph84%30.12 "Hg19 mi
8:00 PM59 °FOvercast.3 mph80%30.10 "Hg28 mi
7:00 PM59 °FOvercast.6 mph82%30.09 "Hg31 mi
6:00 PM61 °FPartly sunny.8 mph78%30.08 "Hg31 mi
5:00 PM61 °FPartly sunny.3 mph69%30.09 "Hg31 mi
4:00 PM63 °FPartly sunny.6 mph65%30.08 "Hg37 mi
3:00 PM61 °FOvercast.7 mph70%30.09 "Hg47 mi
2:00 PM61 °FOvercast.5 mph72%30.09 "Hg43 mi
1:00 PM61 °FOvercast.6 mph68%30.08 "Hg25 mi
12:00 PM59 °FOvercast.6 mph72%30.09 "Hg22 mi
11:00 AM58 °FOvercast.5 mph75%30.08 "Hg19 mi
10:00 AM56 °FOvercast.5 mph82%30.08 "Hg16 mi
9:00 AM55 °FLow clouds.6 mph90%30.08 "Hg12 mi
8:00 AM53 °FScattered clouds.3 mph94%30.07 "Hg8 mi
7:00 AM51 °FPassing clouds.5 mph94%30.05 "Hg8 mi
6:00 AM51 °FPassing clouds.5 mph96%30.03 "Hg25 mi
5:00 AM52 °FPassing clouds.5 mph95%30.03 "Hg37 mi
4:00 AM52 °FOvercast.5 mph94%30.03 "Hg37 mi
3:00 AM52 °FOvercast.5 mph92%30.02 "Hg37 mi
2:00 AM52 °FOvercast.5 mph92%30.01 "Hg37 mi
1:00 AM53 °FPassing clouds.5 mph91%29.99 "Hg37 mi
12:00 AM53 °FPassing clouds.5 mph90%29.98 "Hg37 mi
11:00 PM
Aug 31
53 °FPassing clouds.5 mph86%29.98 "Hg37 mi
Weather by CustomWeather, © 2014

See weather overviewHow to use our weather pages